Prince Rupert,

3:23 AM PDT on September 26, 2017 (GMT -0700)
Prince Rupert

Weather History for CYPR - October, 2012

Change the Weather History Date:

Friday, October 19, 2012

  Actual Average Record
Temperature  
Mean Temperature 38 °F -  
Max Temperature 43 °F 49 °F 59 °F (2002)
Min Temperature 33 °F 40 °F 30 °F (1996)
Degree Days  
Heating Degree Days 27    
Moisture  
Dew Point 37 °F    
Average Humidity 96    
Maximum Humidity 100    
Minimum Humidity 87    
Precipitation  
Precipitation 0.00 in - - ()
Sea Level Pressure  
Sea Level Pressure 29.67 in    
Wind  
Wind Speed 6 mph ()    
Max Wind Speed 15 mph    
Max Gust Speed -    
Visibility 7.5 miles    
Events Fog , Rain    
Averages and records for this station are not official NWS values.
T = Trace of Precipitation, MM = Missing Value Source: Averaged Metar Reports

Daily Weather History Graph

Daily Weather History Graph

Search for Another Location

Airport or City:

Trip Planner

Search our weather history database for the weather conditions in past years. The results will help you decide how hot, cold, wet, or windy it might be!

Date:

Astronomy

Oct. 19, 2012 Rise Set
Actual Time 8:19 AM PDT 6:33 PM PDT
Civil Twilight 7:42 AM PDT 7:09 PM PDT
Nautical Twilight 7:01 AM PDT 7:50 PM PDT
Astronomical Twilight 6:20 AM PDT 8:31 PM PDT
Moon 1:42 PM PDT (10/19) 9:46 PM PDT (10/19)
Length of Visible Light 11h 26m
Length of Day
10h 14m
Waxing Crescent, 24% of the Moon is Illuminated
Oct 19
Waxing Crescent
Oct 21
First Quarter
Oct 29
Full
Nov 6
Last Quarter
Nov 13
New

Hourly Weather History & Observations

Time (PDT) Temp. Windchill Dew Point Humidity Pressure Visibility Wind Dir Wind Speed Gust Speed Precip Events Conditions
12:00 AM 39.2 °F 35.0 °F 35.6 °F 87% 29.65 in 9.0 mi North 5.8 mph - N/A   Partly Cloudy
1:00 AM 37.4 °F 34.9 °F 35.6 °F 93% 29.65 in 9.0 mi NE 3.5 mph - N/A   Clear
2:00 AM 35.6 °F 32.8 °F 33.8 °F 93% 29.66 in 9.0 mi NNE 3.5 mph - N/A   Clear
3:00 AM 35.6 °F 31.7 °F 33.8 °F 93% 29.66 in 9.0 mi NE 4.6 mph - N/A   Clear
4:00 AM 33.8 °F 28.6 °F 33.8 °F 100% 29.66 in 9.0 mi ENE 5.8 mph - N/A   Clear
5:00 AM 36 °F - 36 °F 99% 29.66 in 10 mi ENE 6.9 mph - -  
5:00 AM 35.6 °F 30.7 °F 35.6 °F 100% 29.66 in 9.0 mi ENE 5.8 mph - N/A   Clear
5:36 AM 35.6 °F 29.9 °F 35.6 °F 100% 29.66 in 4.0 mi ENE 6.9 mph - N/A   Clear
5:37 AM 35.6 °F 29.9 °F 35.6 °F 100% 29.66 in 2.5 mi ENE 6.9 mph - N/A   Clear
5:38 AM 35.6 °F 29.9 °F 35.6 °F 100% 29.66 in 1.8 mi East 6.9 mph - N/A   Partly Cloudy
5:51 AM 35.6 °F 30.7 °F 35.6 °F 100% 29.67 in 0.4 mi East 5.8 mph - N/A Fog Fog
5:52 AM 35.6 °F 29.9 °F 35.6 °F 100% 29.66 in 0.4 mi East 6.9 mph - N/A Fog Fog
6:00 AM 35.6 °F 28.6 °F 35.6 °F 100% 29.66 in 0.1 mi East 9.2 mph - N/A Fog Fog
6:41 AM 35.6 °F 29.9 °F 35.6 °F 100% 29.67 in 0.1 mi ENE 6.9 mph - N/A Fog Fog
7:00 AM 35.6 °F 32.8 °F 35.6 °F 100% 29.67 in 0.2 mi East 3.5 mph - N/A Fog Fog
7:05 AM 35.6 °F - 35.6 °F 100% 29.67 in 0.2 mi ESE 2.3 mph - N/A Fog Fog
7:09 AM 35.6 °F 32.8 °F 35.6 °F 100% 29.67 in 0.5 mi East 3.5 mph - N/A Fog Fog
7:16 AM 35.6 °F - 35.6 °F 100% 29.68 in 2.2 mi Calm Calm - N/A   Overcast
7:18 AM 35.6 °F - 35.6 °F 100% 29.68 in 3.0 mi Variable 2.3 mph - N/A   Overcast
7:22 AM 35.6 °F 29.9 °F 35.6 °F 100% 29.68 in 3.0 mi Variable 6.9 mph - N/A Rain Light Rain
7:29 AM 37.4 °F 32.8 °F 37.4 °F 100% 29.68 in 6.0 mi South 5.8 mph - N/A Rain Light Rain
7:32 AM 37.4 °F 31.4 °F 37.4 °F 100% 29.68 in 5.0 mi South 8.1 mph - N/A Rain Light Rain
8:00 AM 37.4 °F 32.8 °F 37.4 °F 100% 29.68 in 5.0 mi East 5.8 mph - N/A Rain Light Rain
8:02 AM 37.4 °F 32.8 °F 37.4 °F 100% 29.68 in 7.0 mi East 5.8 mph - N/A Rain Light Rain
8:30 AM 37.4 °F 31.4 °F 35.6 °F 93% 29.67 in 9.0 mi East 8.1 mph - N/A   Mostly Cloudy
8:54 AM 37.4 °F 32.1 °F 37.4 °F 100% 29.68 in 9.0 mi ENE 6.9 mph - N/A Rain Light Rain
9:00 AM 37.4 °F 32.8 °F 37.4 °F 100% 29.68 in 9.0 mi ENE 5.8 mph - N/A Rain Light Rain
9:08 AM 37.4 °F 32.8 °F 37.4 °F 100% 29.68 in 9.0 mi ENE 5.8 mph - N/A Rain Light Rain
9:12 AM 37.4 °F 32.1 °F 37.4 °F 100% 29.68 in 9.0 mi ENE 6.9 mph - N/A   Overcast
9:24 AM 37.4 °F 32.1 °F 37.4 °F 100% 29.68 in 9.0 mi ENE 6.9 mph - N/A   Overcast
9:40 AM 37.4 °F 33.8 °F 37.4 °F 100% 29.68 in 9.0 mi East 4.6 mph - N/A Rain Light Rain
10:00 AM 39.2 °F - 37.4 °F 93% 29.68 in 8.0 mi Variable 2.3 mph - N/A Rain Light Rain
10:08 AM 39.2 °F 37.0 °F 37.4 °F 93% 29.68 in 9.0 mi ENE 3.5 mph - N/A Rain Light Rain
10:45 AM 39.2 °F 33.6 °F 37.4 °F 93% 29.69 in 9.0 mi SSE 8.1 mph - N/A   Overcast
11:00 AM 39 °F - 38 °F 93% 29.69 in 10 mi SSE 9.2 mph - -  
11:00 AM 39.2 °F 33.0 °F 37.4 °F 93% 29.69 in 9.0 mi SSE 9.2 mph - N/A   Mostly Cloudy
12:00 PM 41.0 °F 33.1 °F 39.2 °F 93% 29.68 in 9.0 mi SE 15.0 mph - N/A   Scattered Clouds
1:00 PM 41.0 °F 33.9 °F 37.4 °F 87% 29.67 in 9.0 mi SE 12.7 mph - N/A   Partly Cloudy
1:04 PM 41.0 °F 34.3 °F 37.4 °F 87% 29.67 in 9.0 mi SE 11.5 mph - N/A Rain Light Rain
1:25 PM 39.2 °F 35.9 °F 37.4 °F 93% 29.68 in 5.0 mi SE 4.6 mph - N/A Rain Rain
1:28 PM 39.2 °F 34.2 °F 37.4 °F 93% 29.68 in 3.0 mi SSE 6.9 mph - N/A Rain Rain
1:45 PM 39.2 °F 35.9 °F 37.4 °F 93% 29.68 in 6.0 mi SSW 4.6 mph - N/A Rain Light Rain
1:59 PM 39.2 °F 35.9 °F 37.4 °F 93% 29.68 in 9.0 mi SE 4.6 mph - N/A Rain Light Rain
2:00 PM 39.2 °F 35.9 °F 37.4 °F 93% 29.68 in 9.0 mi SE 4.6 mph - N/A Rain Light Rain
2:10 PM 39.2 °F - 37.4 °F 93% 29.68 in 9.0 mi Variable 2.3 mph - N/A   Mostly Cloudy
2:14 PM 39.2 °F - 37.4 °F 93% 29.68 in 9.0 mi Calm Calm - N/A   Mostly Cloudy
2:18 PM 39.2 °F 37.0 °F 37.4 °F 93% 29.68 in 9.0 mi Variable 3.5 mph - N/A   Mostly Cloudy
2:21 PM 39.2 °F 35.0 °F 37.4 °F 93% 29.68 in 9.0 mi Variable 5.8 mph - N/A   Overcast
2:23 PM 39.2 °F 33.0 °F 37.4 °F 93% 29.68 in 9.0 mi Variable 9.2 mph - N/A Rain Light Rain
2:28 PM 39.2 °F 32.0 °F 37.4 °F 93% 29.68 in 9.0 mi Variable 11.5 mph - N/A Rain Light Rain
2:30 PM 39.2 °F 32.0 °F 39.2 °F 100% 29.68 in 9.0 mi SE 11.5 mph - N/A Rain Light Rain
2:32 PM 39.2 °F 31.6 °F 37.4 °F 93% 29.68 in 9.0 mi SE 12.7 mph - N/A Rain Light Rain
2:34 PM 39.2 °F 31.6 °F 37.4 °F 93% 29.68 in 9.0 mi ESE 12.7 mph - N/A Rain Light Rain
2:35 PM 39.2 °F 32.0 °F 37.4 °F 93% 29.68 in 9.0 mi ESE 11.5 mph - N/A Rain Light Rain
2:36 PM 39.2 °F 32.5 °F 37.4 °F 93% 29.68 in 9.0 mi ESE 10.4 mph - N/A   Mostly Cloudy
2:41 PM 39.2 °F 32.0 °F 37.4 °F 93% 29.68 in 9.0 mi ESE 11.5 mph - N/A   Mostly Cloudy
2:50 PM 39.2 °F 32.5 °F 37.4 °F 93% 29.67 in 9.0 mi ESE 10.4 mph - N/A Rain Light Rain
3:00 PM 39.2 °F 32.5 °F 37.4 °F 93% 29.67 in 9.0 mi SE 10.4 mph - N/A Rain Light Rain
3:22 PM 39.2 °F 33.0 °F 37.4 °F 93% 29.67 in 9.0 mi SE 9.2 mph - N/A Rain Light Rain
3:29 PM 39.2 °F 33.6 °F 37.4 °F 93% 29.67 in 9.0 mi ESE 8.1 mph - N/A Rain Light Rain
3:30 PM 39.2 °F 33.6 °F 37.4 °F 93% 29.67 in 9.0 mi ESE 8.1 mph - N/A Rain Light Rain
3:34 PM 39.2 °F 34.2 °F 39.2 °F 100% 29.67 in 9.0 mi ESE 6.9 mph - N/A Rain Light Rain
4:00 PM 41.0 °F 36.4 °F 39.2 °F 93% 29.67 in 9.0 mi ESE 6.9 mph - N/A Rain Light Rain
4:01 PM 41.0 °F 36.4 °F 39.2 °F 93% 29.67 in 9.0 mi ESE 6.9 mph - N/A Rain Light Rain
4:20 PM 39.2 °F 32.5 °F 37.4 °F 93% 29.66 in 9.0 mi East 10.4 mph - N/A Rain Light Rain
4:22 PM 39.2 °F 33.0 °F 37.4 °F 93% 29.66 in 9.0 mi East 9.2 mph - N/A   Overcast
4:37 PM 39.2 °F 35.0 °F 37.4 °F 93% 29.66 in 9.0 mi East 5.8 mph - N/A Rain Light Rain
5:00 PM 40 °F - 38 °F 91% 29.66 in 7 mi East 5.8 mph - - Rain Light Rain
5:00 PM 39.2 °F 35.0 °F 37.4 °F 93% 29.65 in 8.0 mi ENE 5.8 mph - N/A Rain Light Rain
5:05 PM 39.2 °F 35.9 °F 39.2 °F 100% 29.65 in 9.0 mi ENE 4.6 mph - N/A Rain Light Rain
5:14 PM 39.2 °F 37.0 °F 37.4 °F 93% 29.66 in 9.0 mi NE 3.5 mph - N/A   Overcast
5:16 PM 39.2 °F 37.0 °F 37.4 °F 93% 29.66 in 9.0 mi NE 3.5 mph - N/A Rain Light Rain
5:44 PM 39.2 °F 37.0 °F 37.4 °F 93% 29.66 in 9.0 mi Variable 3.5 mph - N/A   Overcast
5:58 PM 39.2 °F 34.2 °F 37.4 °F 93% 29.65 in 9.0 mi East 6.9 mph - N/A   Mostly Cloudy
6:00 PM 39.2 °F 34.2 °F 37.4 °F 93% 29.65 in 9.0 mi East 6.9 mph - N/A   Mostly Cloudy
6:03 PM 39.2 °F 34.2 °F 37.4 °F 93% 29.66 in 9.0 mi ESE 6.9 mph - N/A Rain Light Rain
6:05 PM 39.2 °F 33.6 °F 37.4 °F 93% 29.66 in 6.0 mi ESE 8.1 mph - N/A Rain Light Rain
6:06 PM 39.2 °F 33.6 °F 37.4 °F 93% 29.66 in 5.0 mi ESE 8.1 mph - N/A Rain Light Rain
6:07 PM 39.2 °F 33.6 °F 37.4 °F 93% 29.66 in 4.0 mi East 8.1 mph - N/A Rain Rain
6:11 PM 39.2 °F 35.0 °F 37.4 °F 93% 29.66 in 3.0 mi East 5.8 mph - N/A Rain Rain
6:18 PM 39.2 °F 35.9 °F 37.4 °F 93% 29.66 in 6.0 mi East 4.6 mph - N/A Rain Light Rain
6:22 PM 39.2 °F 33.6 °F 37.4 °F 93% 29.65 in 9.0 mi East 8.1 mph - N/A Rain Light Rain
6:43 PM 37.4 °F 32.1 °F 37.4 °F 100% 29.65 in 9.0 mi East 6.9 mph - N/A   Scattered Clouds
6:59 PM 37.4 °F 32.1 °F 37.4 °F 100% 29.65 in 9.0 mi East 6.9 mph - N/A   Mostly Cloudy
7:00 PM 37.4 °F 32.1 °F 37.4 °F 100% 29.65 in 9.0 mi East 6.9 mph - N/A   Mostly Cloudy
7:10 PM 37.4 °F 31.4 °F 37.4 °F 100% 29.65 in 9.0 mi ESE 8.1 mph - N/A   Overcast
7:34 PM 37.4 °F 33.8 °F 35.6 °F 93% 29.65 in 9.0 mi ENE 4.6 mph - N/A Rain Light Rain
7:53 PM 37.4 °F 34.9 °F 37.4 °F 100% 29.66 in 9.0 mi SW 3.5 mph - N/A   Overcast
7:55 PM 37.4 °F 34.9 °F 37.4 °F 100% 29.66 in 9.0 mi SW 3.5 mph - N/A Rain Light Rain
7:58 PM 37.4 °F 32.8 °F 37.4 °F 100% 29.66 in 9.0 mi Variable 5.8 mph - N/A Rain Light Rain
8:00 PM 37.4 °F 34.9 °F 37.4 °F 100% 29.66 in 9.0 mi SW 3.5 mph - N/A Rain Light Rain
8:08 PM 37.4 °F 32.1 °F 35.6 °F 93% 29.66 in 5.0 mi SSE 6.9 mph - N/A Rain Rain
8:23 PM 37.4 °F 31.4 °F 35.6 °F 93% 29.66 in 6.0 mi ESE 8.1 mph - N/A Rain Light Rain
8:45 PM 37.4 °F 31.4 °F 35.6 °F 93% 29.66 in 9.0 mi ESE 8.1 mph - N/A Rain Light Rain
9:00 PM 37.4 °F 31.4 °F 35.6 °F 93% 29.65 in 9.0 mi East 8.1 mph - N/A Rain Light Rain
9:13 PM 35.6 °F 29.2 °F 35.6 °F 100% 29.65 in 9.0 mi East 8.1 mph - N/A   Scattered Clouds
10:00 PM 35.6 °F 29.9 °F 35.6 °F 100% 29.66 in 9.0 mi ENE 6.9 mph - N/A   Clear
11:00 PM 36 °F - 35 °F 95% 29.66 in 10 mi East 3.5 mph - -  
11:00 PM 35.6 °F - 35.6 °F 100% 29.66 in 9.0 mi Calm Calm - N/A   Mostly Cloudy
11:18 PM 35.6 °F 31.7 °F 35.6 °F 100% 29.67 in 9.0 mi ESE 4.6 mph - N/A Rain Light Rain
11:36 PM 37.4 °F 32.1 °F 35.6 °F 93% 29.66 in 7.0 mi ESE 6.9 mph - N/A Rain Light Rain